| time (UTC) | temp F | wind direction | speed MPH | gust MPH | rain 1hr in | rain 24hr in | rain mn in | humidity % | barometer mb |
| 20260902204219 | 56 | 261 | 9.0 | 29.0 | 0.00 | 0.00 | 0.02 | 64 | 1010.1 |
| 20260902203714 | 56 | 270 | 6.0 | 13.0 | 0.00 | 0.00 | 0.02 | 63 | 1010.2 |
| 20260902203209 | 56 | 270 | 14.0 | 24.0 | 0.00 | 0.00 | 0.02 | 64 | 1010.1 |
| 20260902202704 | 56 | 247 | 24.0 | 24.0 | 0.00 | 0.00 | 0.02 | 63 | 1010.2 |
| 20260902202159 | 56 | 225 | 14.0 | 24.0 | 0.00 | 0.00 | 0.02 | 64 | 1010.2 |
| 20260902201653 | 56 | 225 | 16.0 | 20.0 | 0.00 | 0.00 | 0.02 | 64 | 1010.1 |
| 20260902201148 | 56 | 252 | 10.0 | 22.0 | 0.00 | 0.00 | 0.02 | 64 | 1010.2 |
| 20260902200643 | 56 | 207 | 12.0 | 19.0 | 0.00 | 0.00 | 0.02 | 63 | 1010.2 |
| 20260902200138 | 56 | 225 | 4.0 | 30.0 | 0.00 | 0.00 | 0.02 | 64 | 1010.2 |
| 20260902195633 | 56 | 225 | 21.0 | 23.0 | 0.00 | 0.00 | 0.02 | 64 | 1010.1 |
| 20260902195127 | 56 | 297 | 15.0 | 22.0 | 0.00 | 0.00 | 0.02 | 64 | 1010.4 |
| 20260902194622 | 57 | 256 | 17.0 | 18.0 | 0.00 | 0.00 | 0.02 | 64 | 1010.2 |
| 20260902194117 | 57 | 256 | 12.0 | 20.0 | 0.00 | 0.00 | 0.02 | 64 | 1010.3 |
| 20260902193612 | 57 | 225 | 9.0 | 18.0 | 0.00 | 0.00 | 0.02 | 64 | 1010.3 |
| 20260902193107 | 57 | 220 | 6.0 | 16.0 | 0.00 | 0.00 | 0.02 | 64 | 1010.2 |
| 20260902192601 | 57 | 265 | 12.0 | 17.0 | 0.00 | 0.00 | 0.02 | 63 | 1010.1 |
| 20260902192056 | 57 | 247 | 7.0 | 21.0 | 0.00 | 0.00 | 0.02 | 63 | 1010.2 |
| 20260902191551 | 57 | 225 | 4.0 | 15.0 | 0.00 | 0.00 | 0.02 | 63 | 1010.2 |
| 20260902191046 | 57 | 265 | 6.0 | 18.0 | 0.00 | 0.00 | 0.02 | 63 | 1010.1 |
| 20260902190541 | 57 | 261 | 15.0 | 19.0 | 0.00 | 0.00 | 0.02 | 62 | 1010.1 |
| 20260902190035 | 57 | 234 | 7.0 | 12.0 | 0.00 | 0.00 | 0.02 | 62 | 1010.1 |
| 20260902185530 | 57 | 238 | 18.0 | 18.0 | 0.00 | 0.00 | 0.02 | 62 | 1010.0 |
| 20260902185025 | 57 | 225 | 13.0 | 19.0 | 0.00 | 0.00 | 0.02 | 63 | 1010.0 |
| 20260902184520 | 57 | 256 | 13.0 | 16.0 | 0.00 | 0.00 | 0.02 | 62 | 1009.9 |
| 20260902184015 | 57 | 274 | 9.0 | 15.0 | 0.00 | 0.00 | 0.02 | 63 | 1010.0 |
| 20260902183509 | 57 | 261 | 13.0 | 20.0 | 0.00 | 0.00 | 0.02 | 62 | 1009.9 |
| 20260902183004 | 57 | 225 | 10.0 | 15.0 | 0.00 | 0.00 | 0.02 | 63 | 1009.9 |
| 20260902182459 | 58 | 256 | 7.0 | 12.0 | 0.00 | 0.00 | 0.02 | 63 | 1009.8 |
| 20260902181954 | 58 | 225 | 11.0 | 16.0 | 0.00 | 0.00 | 0.02 | 62 | 1009.8 |
| 20260902181449 | 58 | 247 | 9.0 | 12.0 | 0.00 | 0.00 | 0.02 | 63 | 1009.8 |
| 20260902180943 | 58 | 229 | 9.0 | 13.0 | 0.00 | 0.00 | 0.02 | 63 | 1009.7 |
| 20260902180438 | 58 | 225 | 6.0 | 10.0 | 0.00 | 0.00 | 0.02 | 62 | 1009.8 |
| 20260902175933 | 58 | 270 | 7.0 | 11.0 | 0.00 | 0.00 | 0.02 | 63 | 1009.7 |
| 20260902175428 | 58 | 243 | 15.0 | 15.0 | 0.00 | 0.00 | 0.02 | 63 | 1009.7 |
| 20260902174923 | 58 | 229 | 9.0 | 14.0 | 0.00 | 0.00 | 0.02 | 63 | 1009.7 |
| 20260902174417 | 58 | 234 | 5.0 | 10.0 | 0.00 | 0.00 | 0.02 | 63 | 1009.7 |
| 20260902173912 | 58 | 247 | 7.0 | 7.0 | 0.00 | 0.00 | 0.02 | 63 | 1009.7 |
| 20260902173407 | 59 | 90 | 0.0 | 9.0 | 0.00 | 0.00 | 0.02 | 63 | 1009.8 |
| 20260902172902 | 59 | 261 | 11.0 | 11.0 | 0.00 | 0.00 | 0.02 | 63 | 1009.7 |
| 20260902172357 | 59 | 261 | 5.0 | 13.0 | 0.00 | 0.00 | 0.02 | 62 | 1009.7 |
| 20260902171851 | 60 | 225 | 10.0 | 11.0 | 0.00 | 0.00 | 0.02 | 62 | 1009.7 |
| 20260902171346 | 60 | 252 | 10.0 | 10.0 | 0.00 | 0.00 | 0.02 | 62 | 1009.7 |
| 20260902170841 | 60 | 252 | 4.0 | 10.0 | 0.00 | 0.00 | 0.02 | 61 | 1009.7 |
| 20260902170336 | 61 | 247 | 3.0 | 8.0 | 0.00 | 0.00 | 0.02 | 61 | 1009.8 |
| 20260902165831 | 61 | 243 | 3.0 | 8.0 | 0.00 | 0.00 | 0.02 | 61 | 1009.8 |
| 20260902165325 | 61 | 288 | 2.0 | 9.0 | 0.00 | 0.00 | 0.02 | 60 | 1009.7 |
| 20260902164820 | 60 | 36 | 2.0 | 9.0 | 0.00 | 0.00 | 0.02 | 59 | 1009.7 |
| 20260902164315 | 61 | 270 | 7.0 | 17.0 | 0.00 | 0.00 | 0.02 | 58 | 1009.7 |
| 20260902163810 | 61 | 234 | 3.0 | 10.0 | 0.00 | 0.00 | 0.02 | 58 | 1009.6 |
| 20260902163305 | 62 | 123 | 2.0 | 8.0 | 0.00 | 0.00 | 0.02 | 58 | 1009.7 |
| 20260902162759 | 63 | 243 | 7.0 | 11.0 | 0.00 | 0.00 | 0.02 | 58 | 1009.6 |
| 20260902162254 | 63 | 229 | 6.0 | 8.0 | 0.00 | 0.00 | 0.02 | 57 | 1009.7 |
| 20260902161749 | 63 | 328 | 4.0 | 11.0 | 0.00 | 0.00 | 0.02 | 57 | 1009.6 |
| 20260902161244 | 64 | 270 | 7.0 | 13.0 | 0.00 | 0.00 | 0.02 | 57 | 1009.6 |
| 20260902160739 | 64 | 225 | 5.0 | 10.0 | 0.00 | 0.00 | 0.02 | 56 | 1009.6 |
| 20260902160233 | 64 | 264 | 4.0 | 10.0 | 0.00 | 0.00 | 0.02 | 56 | 1009.6 |
| 20260902155728 | 65 | 270 | 8.0 | 8.0 | 0.00 | 0.00 | 0.02 | 58 | 1009.7 |
| 20260902155223 | 65 | 333 | 7.0 | 8.0 | 0.00 | 0.00 | 0.02 | 57 | 1009.6 |
| 20260902154718 | 64 | 256 | 4.0 | 13.0 | 0.00 | 0.00 | 0.02 | 57 | 1009.6 |
| 20260902154213 | 65 | 315 | 5.0 | 12.0 | 0.00 | 0.00 | 0.02 | 58 | 1009.7 |
| 20260902153707 | 65 | 256 | 11.0 | 15.0 | 0.00 | 0.00 | 0.02 | 59 | 1009.6 |
| 20260902153202 | 65 | 274 | 10.0 | 13.0 | 0.00 | 0.00 | 0.02 | 61 | 1009.6 |
| 20260902152657 | 65 | 247 | 4.0 | 17.0 | 0.00 | 0.00 | 0.02 | 63 | 1009.6 |
| 20260902152152 | 65 | 264 | 9.0 | 12.0 | 0.00 | 0.00 | 0.02 | 65 | 1009.6 |
| 20260902151647 | 65 | 270 | 7.0 | 11.0 | 0.00 | 0.00 | 0.02 | 72 | 1009.5 |
| 20260902151142 | 64 | 252 | 10.0 | 18.0 | 0.00 | 0.00 | 0.02 | 76 | 1009.6 |
| 20260902150636 | 63 | 256 | 7.0 | 23.0 | 0.00 | 0.00 | 0.02 | 77 | 1009.5 |
| 20260902150131 | 62 | 261 | 14.0 | 19.0 | 0.00 | 0.00 | 0.02 | 78 | 1009.5 |
| 20260902145626 | 62 | 265 | 13.0 | 16.0 | 0.00 | 0.00 | 0.02 | 77 | 1009.8 |
| 20260902145121 | 62 | 270 | 12.0 | 12.0 | 0.00 | 0.00 | 0.02 | 77 | 1009.7 |
| 20260902144616 | 62 | 234 | 12.0 | 16.0 | 0.00 | 0.00 | 0.02 | 77 | 1009.6 |
| 20260902144110 | 63 | 238 | 15.0 | 15.0 | 0.00 | 0.00 | 0.02 | 78 | 1009.5 |
| 20260902143605 | 63 | 243 | 9.0 | 13.0 | 0.00 | 0.00 | 0.02 | 79 | 1009.5 |
| 20260902143100 | 62 | 234 | 10.0 | 14.0 | 0.00 | 0.00 | 0.02 | 80 | 1009.5 |
| 20260902142555 | 62 | 247 | 17.0 | 18.0 | 0.00 | 0.00 | 0.02 | 80 | 1009.5 |
| 20260902142050 | 62 | 265 | 10.0 | 17.0 | 0.00 | 0.00 | 0.02 | 81 | 1009.5 |
| 20260902141544 | 62 | 270 | 18.0 | 18.0 | 0.00 | 0.00 | 0.02 | 82 | 1009.4 |
| 20260902141039 | 61 | 225 | 12.0 | 17.0 | 0.00 | 0.00 | 0.02 | 82 | 1009.5 |
| 20260902140534 | 61 | 252 | 7.0 | 18.0 | 0.00 | 0.00 | 0.02 | 82 | 1009.5 |
| 20260902140029 | 61 | 225 | 9.0 | 12.0 | 0.00 | 0.00 | 0.02 | 82 | 1009.6 |
| 20260902135524 | 61 | 238 | 6.0 | 10.0 | 0.00 | 0.00 | 0.02 | 82 | 1009.6 |
| 20260902135018 | 60 | 225 | 10.0 | 15.0 | 0.00 | 0.00 | 0.02 | 82 | 1009.4 |
| 20260902134513 | 60 | 243 | 13.0 | 15.0 | 0.00 | 0.00 | 0.02 | 82 | 1009.4 |
| 20260902134008 | 61 | 225 | 11.0 | 17.0 | 0.00 | 0.00 | 0.02 | 82 | 1009.5 |
| 20260902133503 | 61 | 225 | 8.0 | 11.0 | 0.00 | 0.00 | 0.02 | 82 | 1009.5 |
| 20260902132958 | 61 | 225 | 8.0 | 14.0 | 0.00 | 0.00 | 0.02 | 83 | 1009.4 |
| 20260902132452 | 61 | 207 | 9.0 | 16.0 | 0.00 | 0.00 | 0.02 | 83 | 1009.5 |
| 20260902131947 | 61 | 243 | 7.0 | 13.0 | 0.00 | 0.00 | 0.02 | 85 | 1009.5 |
| 20260902131442 | 60 | 247 | 7.0 | 11.0 | 0.00 | 0.00 | 0.02 | 84 | 1009.6 |
| 20260902130937 | 59 | 252 | 9.0 | 10.0 | 0.00 | 0.00 | 0.02 | 83 | 1009.4 |
| 20260902130432 | 59 | 256 | 12.0 | 13.0 | 0.00 | 0.00 | 0.02 | 83 | 1009.6 |
| 20260902125927 | 58 | 243 | 11.0 | 13.0 | 0.00 | 0.00 | 0.02 | 81 | 1009.6 |
| 20260902125421 | 58 | 238 | 9.0 | 19.0 | 0.00 | 0.00 | 0.02 | 81 | 1009.9 |
| 20260902124916 | 58 | 252 | 12.0 | 16.0 | 0.00 | 0.00 | 0.02 | 80 | 1009.7 |
| 20260902124411 | 59 | 229 | 16.0 | 16.0 | 0.00 | 0.00 | 0.01 | 79 | 1009.7 |
| 20260902123906 | 60 | 225 | 8.0 | 15.0 | 0.00 | 0.00 | 0.01 | 78 | 1009.7 |
| 20260902123401 | 60 | 220 | 13.0 | 17.0 | 0.00 | 0.00 | 0.00 | 78 | 1009.7 |
| 20260902122855 | 60 | 225 | 15.0 | 16.0 | 0.00 | 0.00 | 0.00 | 78 | 1009.8 |
| 20260902122350 | 60 | 225 | 7.0 | 13.0 | 0.00 | 0.00 | 0.00 | 78 | 1009.8 |
| 20260902121845 | 61 | 216 | 11.0 | 11.0 | 0.00 | 0.00 | 0.00 | 78 | 1009.8 |
| 20260902121340 | 61 | 225 | 6.0 | 11.0 | 0.00 | 0.00 | 0.00 | 77 | 1009.7 |
| 20260902120835 | 61 | 265 | 11.0 | 16.0 | 0.00 | 0.00 | 0.00 | 77 | 1009.8 |
| 20260902120329 | 61 | 274 | 14.0 | 16.0 | 0.00 | 0.00 | 0.00 | 77 | 1009.8 |
| 20260902115824 | 61 | 247 | 18.0 | 18.0 | 0.00 | 0.00 | 0.00 | 77 | 1009.7 |
| 20260902115319 | 60 | 238 | 12.0 | 16.0 | 0.00 | 0.00 | 0.00 | 77 | 1009.8 |
| 20260902114814 | 61 | 225 | 15.0 | 18.0 | 0.00 | 0.00 | 0.00 | 76 | 1010.0 |
| 20260902114309 | 61 | 225 | 11.0 | 12.0 | 0.00 | 0.00 | 0.00 | 75 | 1010.0 |
| 20260902113803 | 61 | 252 | 9.0 | 13.0 | 0.00 | 0.00 | 0.00 | 74 | 1010.0 |
| 20260902113258 | 61 | 225 | 8.0 | 9.0 | 0.00 | 0.00 | 0.00 | 74 | 1010.0 |
| 20260902112753 | 61 | 225 | 9.0 | 12.0 | 0.00 | 0.00 | 0.00 | 74 | 1010.1 |
| 20260902112248 | 61 | 252 | 5.0 | 8.0 | 0.00 | 0.00 | 0.00 | 74 | 1010.1 |
| 20260902111743 | 61 | 265 | 10.0 | 11.0 | 0.00 | 0.00 | 0.00 | 74 | 1010.1 |
| 20260902111237 | 61 | 220 | 7.0 | 10.0 | 0.00 | 0.00 | 0.00 | 73 | 1010.3 |
| 20260902110732 | 61 | 238 | 8.0 | 13.0 | 0.00 | 0.00 | 0.00 | 73 | 1010.2 |
| 20260902110227 | 61 | 252 | 7.0 | 11.0 | 0.00 | 0.00 | 0.00 | 74 | 1010.2 |
| 20260902105722 | 61 | 256 | 7.0 | 11.0 | 0.00 | 0.00 | 0.00 | 72 | 1010.3 |
| 20260902105217 | 61 | 256 | 11.0 | 14.0 | 0.00 | 0.00 | 0.00 | 71 | 1010.2 |
| 20260902104711 | 62 | 270 | 7.0 | 14.0 | 0.00 | 0.00 | 0.00 | 70 | 1010.1 |
| 20260902104206 | 62 | 247 | 8.0 | 9.0 | 0.00 | 0.00 | 0.00 | 70 | 1010.2 |
| 20260902103701 | 63 | 270 | 8.0 | 15.0 | 0.00 | 0.00 | 0.00 | 68 | 1010.1 |
| 20260902103156 | 64 | 256 | 10.0 | 15.0 | 0.00 | 0.00 | 0.00 | 68 | 1010.2 |
| 20260902102651 | 64 | 261 | 15.0 | 17.0 | 0.00 | 0.00 | 0.00 | 70 | 1010.1 |
| 20260902102145 | 64 | 265 | 15.0 | 18.0 | 0.00 | 0.00 | 0.00 | 70 | 1010.1 |
| 20260902101640 | 64 | 270 | 5.0 | 10.0 | 0.00 | 0.00 | 0.00 | 70 | 1010.1 |
| 20260902101135 | 64 | 247 | 3.0 | 9.0 | 0.00 | 0.00 | 0.00 | 70 | 1010.2 |
| 20260902100630 | 64 | 252 | 6.0 | 14.0 | 0.00 | 0.00 | 0.00 | 71 | 1010.2 |
| 20260902100125 | 64 | 13 | 4.0 | 21.0 | 0.00 | 0.00 | 0.00 | 72 | 1010.2 |
| 20260902095620 | 63 | 261 | 10.0 | 18.0 | 0.00 | 0.00 | 0.00 | 73 | 1010.2 |
| 20260902095114 | 62 | 252 | 14.0 | 19.0 | 0.00 | 0.00 | 0.00 | 72 | 1010.2 |
| 20260902094610 | 62 | 265 | 12.0 | 19.0 | 0.00 | 0.00 | 0.00 | 72 | 1010.3 |
| 20260902094104 | 62 | 270 | 12.0 | 13.0 | 0.00 | 0.00 | 0.00 | 73 | 1010.3 |
| 20260902093559 | 62 | 229 | 8.0 | 17.0 | 0.00 | 0.00 | 0.00 | 72 | 1010.2 |
| 20260902093053 | 62 | 270 | 17.0 | 18.0 | 0.00 | 0.00 | 0.00 | 73 | 1010.2 |
| 20260902092548 | 63 | 256 | 11.0 | 13.0 | 0.00 | 0.00 | 0.00 | 73 | 1010.2 |
| 20260902092044 | 63 | 283 | 6.0 | 29.0 | 0.00 | 0.00 | 0.00 | 72 | 1010.1 |
| 20260902091538 | 64 | 301 | 18.0 | 24.0 | 0.00 | 0.00 | 0.00 | 73 | 1010.2 |
| 20260902091033 | 64 | 270 | 20.0 | 20.0 | 0.00 | 0.00 | 0.00 | 75 | 1010.1 |
| 20260902090527 | 63 | 252 | 6.0 | 14.0 | 0.00 | 0.00 | 0.00 | 75 | 1010.1 |
| 20260902090022 | 63 | 256 | 11.0 | 21.0 | 0.00 | 0.00 | 0.00 | 74 | 1010.0 |
| 20260902085518 | 64 | 265 | 11.0 | 22.0 | 0.00 | 0.00 | 0.00 | 74 | 1010.0 |
| 20260902085012 | 64 | 279 | 8.0 | 23.0 | 0.00 | 0.00 | 0.00 | 76 | 1009.8 |
| 20260902084507 | 64 | 261 | 22.0 | 32.0 | 0.00 | 0.00 | 0.00 | 77 | 1009.9 |
| 20260902084002 | 64 | 225 | 16.0 | 30.0 | 0.00 | 0.00 | 0.00 | 78 | 1009.9 |
| 20260902083456 | 63 | 238 | 18.0 | 26.0 | 0.00 | 0.00 | 0.00 | 78 | 1009.9 |
| 20260902082952 | 63 | 225 | 13.0 | 23.0 | 0.00 | 0.00 | 0.00 | 79 | 1009.9 |
| 20260902082446 | 62 | 234 | 16.0 | 26.0 | 0.00 | 0.00 | 0.00 | 79 | 1009.9 |
| 20260902081941 | 63 | 225 | 20.0 | 28.0 | 0.00 | 0.00 | 0.00 | 81 | 1009.8 |
| 20260902081436 | 62 | 256 | 18.0 | 18.0 | 0.00 | 0.00 | 0.09 | 82 | 1009.8 |
| 20260902080930 | 62 | 252 | 14.0 | 20.0 | 0.00 | 0.00 | 0.09 | 81 | 1009.9 |
| 20260902080426 | 62 | 243 | 12.0 | 20.0 | 0.00 | 0.00 | 0.09 | 83 | 1009.8 |
| 20260902075920 | 62 | 229 | 17.0 | 20.0 | 0.00 | 0.00 | 0.09 | 84 | 1009.7 |
| 20260902075415 | 61 | 225 | 11.0 | 16.0 | 0.00 | 0.00 | 0.09 | 84 | 1009.7 |
| 20260902074910 | 61 | 238 | 13.0 | 18.0 | 0.00 | 0.00 | 0.09 | 85 | 1009.6 |
| 20260902074404 | 60 | 270 | 11.0 | 19.0 | 0.00 | 0.00 | 0.09 | 85 | 1009.5 |
| 20260902073900 | 60 | 225 | 25.0 | 25.0 | 0.00 | 0.00 | 0.09 | 83 | 1009.6 |
| 20260902073354 | 60 | 225 | 22.0 | 22.0 | 0.00 | 0.00 | 0.09 | 82 | 1009.5 |
| 20260902072849 | 60 | 270 | 7.0 | 24.0 | 0.00 | 0.00 | 0.09 | 82 | 1009.6 |
| 20260902072344 | 61 | 247 | 16.0 | 24.0 | 0.00 | 0.00 | 0.09 | 82 | 1009.5 |
| 20260902071838 | 61 | 243 | 12.0 | 24.0 | 0.00 | 0.00 | 0.09 | 82 | 1009.5 |
| 20260902071334 | 60 | 234 | 16.0 | 24.0 | 0.00 | 0.00 | 0.09 | 83 | 1009.5 |
| 20260902070828 | 60 | 225 | 9.0 | 22.0 | 0.00 | 0.00 | 0.09 | 82 | 1009.4 |
| 20260902070323 | 60 | 234 | 14.0 | 27.0 | 0.00 | 0.00 | 0.09 | 82 | 1009.6 |
| 20260902065818 | 60 | 225 | 15.0 | 15.0 | 0.00 | 0.00 | 0.09 | 82 | 1009.6 |
| 20260902065312 | 61 | 225 | 14.0 | 24.0 | 0.00 | 0.00 | 0.09 | 82 | 1009.5 |
| 20260902064808 | 61 | 225 | 16.0 | 24.0 | 0.00 | 0.00 | 0.09 | 83 | 1009.4 |
| 20260902064302 | 61 | 270 | 19.0 | 27.0 | 0.00 | 0.00 | 0.09 | 82 | 1009.4 |
| 20260902063757 | 61 | 247 | 17.0 | 26.0 | 0.00 | 0.00 | 0.09 | 83 | 1009.3 |
| 20260902063252 | 60 | 238 | 9.0 | 16.0 | 0.00 | 0.00 | 0.09 | 84 | 1009.4 |
| 20260902062746 | 60 | 256 | 14.0 | 21.0 | 0.00 | 0.00 | 0.09 | 83 | 1009.4 |
| 20260902062242 | 60 | 225 | 22.0 | 23.0 | 0.00 | 0.00 | 0.09 | 84 | 1009.5 |
| 20260902061736 | 60 | 211 | 17.0 | 24.0 | 0.00 | 0.00 | 0.09 | 83 | 1009.5 |
| 20260902061231 | 60 | 247 | 20.0 | 33.0 | 0.00 | 0.00 | 0.09 | 84 | 1009.6 |
| 20260902060726 | 60 | 225 | 13.0 | 37.0 | 0.00 | 0.00 | 0.09 | 84 | 1009.4 |
| 20260902060221 | 59 | 225 | 20.0 | 20.0 | 0.00 | 0.00 | 0.09 | 84 | 1009.3 |
| 20260902055716 | 59 | 225 | 15.0 | 18.0 | 0.00 | 0.00 | 0.09 | 84 | 1009.4 |
| 20260902055210 | 59 | 225 | 14.0 | 21.0 | 0.00 | 0.00 | 0.09 | 84 | 1009.5 |
| 20260902054705 | 59 | 234 | 26.0 | 29.0 | 0.00 | 0.00 | 0.09 | 84 | 1009.4 |
| 20260902054200 | 59 | 225 | 22.0 | 26.0 | 0.00 | 0.00 | 0.09 | 84 | 1009.5 |
| 20260902053655 | 59 | 225 | 8.0 | 24.0 | 0.00 | 0.00 | 0.09 | 84 | 1009.4 |
| 20260902053150 | 59 | 225 | 7.0 | 17.0 | 0.00 | 0.00 | 0.09 | 84 | 1009.4 |
| 20260902052644 | 59 | 247 | 17.0 | 19.0 | 0.00 | 0.00 | 0.09 | 84 | 1009.4 |
| 20260902052139 | 59 | 252 | 13.0 | 24.0 | 0.00 | 0.00 | 0.09 | 85 | 1009.4 |
| 20260902051634 | 59 | 261 | 15.0 | 24.0 | 0.00 | 0.00 | 0.09 | 84 | 1009.4 |
| 20260902051129 | 58 | 225 | 18.0 | 21.0 | 0.00 | 0.00 | 0.09 | 85 | 1009.4 |
| 20260902050624 | 58 | 229 | 17.0 | 20.0 | 0.00 | 0.00 | 0.09 | 85 | 1009.3 |
| 20260902050118 | 58 | 279 | 16.0 | 26.0 | 0.00 | 0.00 | 0.09 | 85 | 1009.2 |
| 20260902045613 | 58 | 247 | 16.0 | 20.0 | 0.00 | 0.00 | 0.09 | 84 | 1009.3 |
| 20260902045108 | 58 | 265 | 12.0 | 20.0 | 0.00 | 0.00 | 0.09 | 84 | 1009.4 |
| 20260902044603 | 58 | 225 | 9.0 | 18.0 | 0.00 | 0.00 | 0.09 | 84 | 1009.2 |
| 20260902044058 | 58 | 256 | 13.0 | 17.0 | 0.00 | 0.00 | 0.09 | 84 | 1009.2 |
| 20260902043552 | 58 | 216 | 12.0 | 16.0 | 0.00 | 0.00 | 0.09 | 83 | 1009.3 |
| 20260902043047 | 58 | 225 | 11.0 | 20.0 | 0.00 | 0.00 | 0.09 | 83 | 1009.3 |
| 20260902042542 | 58 | 216 | 9.0 | 25.0 | 0.00 | 0.00 | 0.09 | 83 | 1009.2 |
| 20260902042037 | 58 | 216 | 17.0 | 27.0 | 0.00 | 0.00 | 0.09 | 83 | 1009.2 |
| 20260902041532 | 58 | 225 | 15.0 | 26.0 | 0.00 | 0.00 | 0.09 | 83 | 1009.3 |
| 20260902041026 | 58 | 225 | 14.0 | 19.0 | 0.00 | 0.00 | 0.09 | 83 | 1009.2 |
| 20260902040521 | 58 | 225 | 9.0 | 19.0 | 0.00 | 0.00 | 0.09 | 83 | 1009.3 |
| 20260902040016 | 58 | 211 | 12.0 | 25.0 | 0.00 | 0.00 | 0.09 | 82 | 1009.2 |
| 20260902035511 | 58 | 238 | 30.0 | 30.0 | 0.00 | 0.00 | 0.09 | 82 | 1009.4 |
| 20260902035006 | 58 | 238 | 27.0 | 28.0 | 0.00 | 0.00 | 0.09 | 82 | 1009.3 |
| 20260902034500 | 58 | 216 | 14.0 | 33.0 | 0.00 | 0.00 | 0.09 | 81 | 1009.4 |
| 20260902033955 | 59 | 225 | 13.0 | 22.0 | 0.00 | 0.00 | 0.09 | 81 | 1009.4 |
| 20260902033450 | 59 | 202 | 20.0 | 20.0 | 0.00 | 0.00 | 0.09 | 81 | 1009.4 |
| 20260902032945 | 59 | 225 | 8.0 | 18.0 | 0.00 | 0.00 | 0.09 | 81 | 1009.5 |
| 20260902032440 | 59 | 225 | 25.0 | 25.0 | 0.00 | 0.00 | 0.09 | 80 | 1009.5 |
| 20260902031934 | 59 | 225 | 12.0 | 23.0 | 0.00 | 0.00 | 0.09 | 81 | 1009.6 |
| 20260902031429 | 59 | 225 | 10.0 | 17.0 | 0.00 | 0.00 | 0.09 | 80 | 1009.6 |
| 20260902030924 | 59 | 198 | 10.0 | 14.0 | 0.00 | 0.00 | 0.09 | 80 | 1009.6 |
| 20260902030419 | 58 | 202 | 10.0 | 12.0 | 0.00 | 0.00 | 0.09 | 80 | 1009.8 |
| 20260902025914 | 58 | 211 | 9.0 | 13.0 | 0.00 | 0.00 | 0.09 | 80 | 1009.8 |
| 20260902025408 | 58 | 220 | 7.0 | 13.0 | 0.00 | 0.00 | 0.09 | 80 | 1009.8 |
| 20260902024903 | 58 | 198 | 9.0 | 15.0 | 0.00 | 0.00 | 0.09 | 80 | 1009.8 |
| 20260902024358 | 58 | 211 | 8.0 | 10.0 | 0.00 | 0.00 | 0.09 | 79 | 1009.8 |
| 20260902023853 | 58 | 211 | 11.0 | 11.0 | 0.00 | 0.00 | 0.09 | 80 | 1009.8 |
| 20260902023348 | 58 | 225 | 8.0 | 11.0 | 0.00 | 0.00 | 0.09 | 79 | 1009.8 |
| 20260902022842 | 58 | 193 | 8.0 | 11.0 | 0.00 | 0.00 | 0.09 | 79 | 1009.9 |
| 20260902022337 | 58 | 225 | 7.0 | 11.0 | 0.00 | 0.00 | 0.09 | 79 | 1009.9 |
| 20260902021832 | 58 | 207 | 5.0 | 9.0 | 0.00 | 0.00 | 0.09 | 79 | 1010.1 |
| 20260902021327 | 58 | 220 | 7.0 | 11.0 | 0.00 | 0.00 | 0.09 | 79 | 1010.0 |
| 20260902020822 | 58 | 180 | 6.0 | 10.0 | 0.00 | 0.00 | 0.09 | 79 | 1010.0 |
| 20260902020316 | 58 | 216 | 6.0 | 12.0 | 0.00 | 0.00 | 0.09 | 79 | 1010.1 |
| 20260902015811 | 57 | 180 | 4.0 | 11.0 | 0.00 | 0.00 | 0.09 | 79 | 1010.2 |
| 20260902015306 | 57 | 225 | 4.0 | 13.0 | 0.00 | 0.00 | 0.09 | 78 | 1010.1 |
| 20260902014801 | 57 | 216 | 3.0 | 7.0 | 0.00 | 0.00 | 0.09 | 78 | 1010.1 |
| 20260902014256 | 57 | 220 | 7.0 | 10.0 | 0.00 | 0.00 | 0.09 | 78 | 1010.2 |
| 20260902013750 | 57 | 225 | 6.0 | 14.0 | 0.00 | 0.00 | 0.09 | 77 | 1010.3 |
| 20260902013245 | 57 | 225 | 7.0 | 9.0 | 0.00 | 0.00 | 0.09 | 77 | 1010.3 |
| 20260902012740 | 57 | 225 | 10.0 | 14.0 | 0.00 | 0.00 | 0.09 | 77 | 1010.3 |
| 20260902012235 | 57 | 225 | 4.0 | 9.0 | 0.00 | 0.00 | 0.09 | 77 | 1010.3 |
| 20260902011730 | 57 | 225 | 10.0 | 11.0 | 0.00 | 0.00 | 0.09 | 77 | 1010.2 |
| 20260902011224 | 57 | 234 | 6.0 | 8.0 | 0.00 | 0.00 | 0.09 | 76 | 1010.3 |
| 20260902010719 | 57 | 225 | 6.0 | 14.0 | 0.00 | 0.00 | 0.09 | 75 | 1010.4 |
| 20260902005706 | 57 | 216 | 7.0 | 9.0 | 0.00 | 0.00 | 0.09 | 75 | 1010.4 |
| 20260902005201 | 57 | 225 | 12.0 | 12.0 | 0.00 | 0.00 | 0.09 | 75 | 1010.5 |
| 20260902004655 | 57 | 207 | 7.0 | 13.0 | 0.00 | 0.00 | 0.09 | 75 | 1010.5 |
| 20260902004150 | 57 | 225 | 6.0 | 17.0 | 0.00 | 0.00 | 0.09 | 75 | 1010.6 |
| 20260902003645 | 57 | 243 | 11.0 | 12.0 | 0.00 | 0.00 | 0.09 | 75 | 1010.5 |
| 20260902003140 | 57 | 225 | 15.0 | 19.0 | 0.00 | 0.00 | 0.09 | 75 | 1010.6 |
| 20260902002635 | 57 | 234 | 11.0 | 15.0 | 0.00 | 0.00 | 0.09 | 75 | 1010.6 |
| 20260902002129 | 57 | 261 | 6.0 | 17.0 | 0.00 | 0.00 | 0.09 | 75 | 1010.6 |
| 20260902001624 | 57 | 225 | 7.0 | 9.0 | 0.00 | 0.00 | 0.09 | 75 | 1010.5 |
| 20260902001119 | 57 | 265 | 11.0 | 15.0 | 0.00 | 0.00 | 0.09 | 76 | 1010.5 |
| 20260902000614 | 57 | 265 | 11.0 | 12.0 | 0.00 | 0.00 | 0.09 | 76 | 1010.6 |
| 20260902000109 | 56 | 261 | 8.0 | 12.0 | 0.00 | 0.00 | 0.09 | 76 | 1010.6 |
| 20260901235603 | 56 | 261 | 7.0 | 13.0 | 0.00 | 0.00 | 0.09 | 76 | 1010.6 |
| 20260901235058 | 55 | 216 | 6.0 | 11.0 | 0.00 | 0.00 | 0.09 | 75 | 1010.5 |
| 20260901234553 | 55 | 225 | 4.0 | 9.0 | 0.00 | 0.00 | 0.09 | 75 | 1010.6 |
| 20260901234048 | 55 | 270 | 10.0 | 11.0 | 0.00 | 0.00 | 0.09 | 75 | 1010.6 |
| 20260901233543 | 55 | 225 | 5.0 | 9.0 | 0.00 | 0.00 | 0.09 | 75 | 1010.6 |
| 20260901233037 | 55 | 256 | 4.0 | 7.0 | 0.00 | 0.00 | 0.09 | 74 | 1010.6 |
| 20260901232532 | 55 | 234 | 8.0 | 11.0 | 0.00 | 0.00 | 0.09 | 75 | 1010.7 |
| 20260901232027 | 56 | 265 | 6.0 | 11.0 | 0.00 | 0.00 | 0.09 | 74 | 1010.7 |
| 20260901231522 | 56 | 261 | 5.0 | 9.0 | 0.00 | 0.00 | 0.09 | 74 | 1010.7 |
| 20260901231017 | 56 | 247 | 9.0 | 11.0 | 0.00 | 0.00 | 0.09 | 73 | 1010.8 |
| 20260901230511 | 56 | 238 | 8.0 | 10.0 | 0.00 | 0.00 | 0.09 | 73 | 1010.8 |
| 20260901230006 | 57 | 270 | 8.0 | 13.0 | 0.00 | 0.00 | 0.09 | 73 | 1010.8 |
| 20260901225501 | 57 | 265 | 6.0 | 13.0 | 0.00 | 0.00 | 0.09 | 73 | 1010.9 |
| 20260901224956 | 57 | 243 | 10.0 | 14.0 | 0.00 | 0.00 | 0.09 | 73 | 1010.8 |
| 20260901224451 | 57 | 234 | 9.0 | 12.0 | 0.00 | 0.00 | 0.09 | 73 | 1010.8 |
| 20260901223945 | 57 | 270 | 9.0 | 16.0 | 0.00 | 0.00 | 0.09 | 73 | 1010.8 |
| 20260901223440 | 57 | 225 | 8.0 | 17.0 | 0.00 | 0.00 | 0.09 | 73 | 1010.9 |
| 20260901222935 | 57 | 279 | 6.0 | 13.0 | 0.00 | 0.00 | 0.09 | 73 | 1010.8 |
| 20260901222430 | 57 | 288 | 5.0 | 18.0 | 0.00 | 0.00 | 0.09 | 74 | 1010.9 |
| 20260901221925 | 57 | 256 | 8.0 | 20.0 | 0.00 | 0.00 | 0.09 | 73 | 1010.9 |
| 20260901221419 | 57 | 298 | 8.0 | 13.0 | 0.00 | 0.00 | 0.09 | 74 | 1010.9 |
| 20260901220914 | 57 | 261 | 9.0 | 15.0 | 0.00 | 0.00 | 0.09 | 75 | 1010.8 |
| 20260901220409 | 57 | 265 | 17.0 | 18.0 | 0.00 | 0.00 | 0.09 | 75 | 1010.7 |
| 20260901215904 | 57 | 252 | 8.0 | 15.0 | 0.00 | 0.00 | 0.09 | 75 | 1010.7 |
| 20260901215359 | 57 | 256 | 10.0 | 10.0 | 0.00 | 0.00 | 0.09 | 75 | 1010.8 |
| 20260901214853 | 57 | 225 | 5.0 | 10.0 | 0.00 | 0.00 | 0.09 | 74 | 1010.5 |
| 20260901214348 | 58 | 261 | 4.0 | 9.0 | 0.00 | 0.00 | 0.09 | 74 | 1010.6 |
| 20260901213843 | 58 | 232 | 9.0 | 15.0 | 0.00 | 0.00 | 0.09 | 74 | 1010.7 |
| 20260901213338 | 58 | 238 | 16.0 | 17.0 | 0.00 | 0.00 | 0.09 | 74 | 1010.6 |
| 20260901212833 | 58 | 247 | 10.0 | 10.0 | 0.00 | 0.00 | 0.09 | 74 | 1010.6 |
| 20260901212328 | 58 | 270 | 16.0 | 17.0 | 0.00 | 0.00 | 0.09 | 74 | 1010.5 |
| 20260901211822 | 58 | 270 | 17.0 | 29.0 | 0.00 | 0.00 | 0.09 | 75 | 1010.4 |
| 20260901211317 | 58 | 247 | 15.0 | 15.0 | 0.00 | 0.00 | 0.09 | 74 | 1010.4 |
| 20260901210812 | 58 | 270 | 14.0 | 14.0 | 0.00 | 0.00 | 0.09 | 75 | 1010.4 |
| 20260901210307 | 58 | 270 | 16.0 | 22.0 | 0.00 | 0.00 | 0.09 | 75 | 1010.3 |
| 20260901205256 | 59 | 270 | 9.0 | 23.0 | 0.00 | 0.00 | 0.09 | 75 | 1010.5 |
| 20260901204751 | 59 | 283 | 15.0 | 18.0 | 0.00 | 0.00 | 0.09 | 75 | 1010.4 |